Location: Newark
(25.0000°N, 73.5000°E)
Time: 23:02:05
(UTC+00:00)

Courier 1B Rocket - All Passes

Search period start: 30 July 2021 00:00
Search period end: 09 August 2021 00:00
Orbit: 920 x 1202 km, 28.2° (Epoch: 30 July)

Date Brightness Start Highest point End Pass type
(mag) Time Alt. Az. Time Alt. Az. Time Alt. Az.
30 Jul - 01:42:20 10° WNW 01:48:35 83° SSW 01:54:57 10° ESE daylight
30 Jul - 03:36:15 10° W 03:41:47 33° SSW 03:47:32 10° SE daylight
30 Jul - 17:11:51 10° SSE 17:13:34 11° SSE 17:15:16 10° SE night (unlit)
30 Jul - 19:00:27 10° SW 19:06:51 37° SSE 19:12:51 10° E night (unlit)
30 Jul - 20:53:24 10° WSW 21:00:12 85° SSE 21:06:36 10° ENE visible
30 Jul - 22:47:26 10° W 22:53:52 66° N 23:00:05 10° E visible
31 Jul - 00:41:15 10° WNW 00:47:33 81° NNE 00:53:50 10° E daylight
31 Jul - 02:34:57 10° W 02:40:51 46° SSW 02:46:56 10° SE daylight
31 Jul - 04:30:40 10° WSW 04:33:54 14° SSW 04:37:13 10° S daylight
31 Jul - 17:59:55 10° SSW 18:05:47 26° SSE 18:11:21 10° E night (unlit)
31 Jul - 19:52:09 10° WSW 19:59:07 68° SSE 20:05:36 10° ENE visible
31 Jul - 21:46:04 10° W 21:52:44 70° N 21:59:02 10° ENE visible
31 Jul - 23:40:05 10° WNW 23:46:28 71° N 23:52:42 10° E visible
01 Aug - 01:33:45 10° W 01:39:55 63° SSW 01:46:08 10° ESE daylight
01 Aug - 03:28:21 10° WSW 03:32:58 22° SSW 03:37:43 10° SSE daylight
01 Aug - 16:59:50 10° SSW 17:04:42 19° SSE 17:09:23 10° ESE night (unlit)
01 Aug - 18:51:03 10° SW 18:58:01 52° SSE 19:04:31 10° E night (unlit)
01 Aug - 20:44:39 10° W 20:51:34 80° NNW 20:58:02 10° ENE visible
01 Aug - 22:38:49 10° W 22:45:20 66° N 22:51:35 10° E visible
02 Aug - 00:32:36 10° WNW 00:38:57 82° SSW 00:45:12 10° ESE daylight
02 Aug - 02:26:40 10° W 02:32:05 31° SSW 02:37:35 10° SSE daylight
02 Aug - 16:00:49 10° S 16:03:34 12° SSE 16:06:16 10° SE visible
02 Aug - 17:50:09 10° SW 17:56:56 39° SSE 18:03:16 10° E night (unlit)
02 Aug - 19:43:15 10° WSW 19:50:24 87° SSE 19:57:03 10° ENE visible
02 Aug - 21:37:26 10° W 21:44:10 66° N 21:50:30 10° E visible
02 Aug - 23:31:25 10° WNW 23:37:54 82° NNE 23:44:10 10° E visible
03 Aug - 01:25:15 10° W 01:31:11 45° SSW 01:37:05 10° SE daylight
03 Aug - 03:21:21 10° WSW 03:24:09 13° SSW 03:26:59 10° S daylight
03 Aug - 16:49:32 10° SSW 16:55:48 28° SSE 17:01:46 10° E night (unlit)
03 Aug - 18:41:55 10° WSW 18:49:14 70° SSE 18:56:01 10° ENE night (unlit)
03 Aug - 20:35:58 10° W 20:42:58 71° N 20:49:28 10° ENE visible
03 Aug - 22:30:08 10° WNW 22:36:48 72° N 22:43:06 10° E visible
04 Aug - 00:23:58 10° W 00:30:16 62° SSW 00:36:24 10° ESE daylight
04 Aug - 02:18:47 10° WSW 02:23:16 21° SSW 02:27:46 10° SSE daylight
04 Aug - 15:49:23 10° SSW 15:54:40 20° SSE 15:59:47 10° ESE visible
04 Aug - 17:40:45 10° SW 17:48:03 54° SSE 17:54:54 10° E night (unlit)
04 Aug - 19:34:27 10° W 19:41:44 79° N 19:48:28 10° ENE visible
04 Aug - 21:28:46 10° W 21:35:37 67° N 21:42:01 10° E visible
04 Aug - 23:22:43 10° WNW 23:29:17 81° SSW 23:35:33 10° ESE visible
05 Aug - 01:16:58 10° W 01:22:24 31° SSW 01:27:47 10° SSE daylight
05 Aug - 14:50:08 10° S 14:53:30 13° SSE 14:56:49 10° ESE visible
05 Aug - 16:39:48 10° SW 16:46:53 41° SSE 16:53:36 10° E visible
05 Aug - 18:32:59 10° WSW 18:40:29 88° SSE 18:47:26 10° ENE night (unlit)
05 Aug - 20:27:18 10° W 20:34:22 67° N 20:40:57 10° E visible
05 Aug - 22:21:25 10° WNW 22:28:13 84° NNE 22:34:35 10° ESE visible
06 Aug - 00:15:26 10° W 00:21:31 44° SSW 00:27:24 10° SE daylight
06 Aug - 02:11:53 10° WSW 02:14:25 13° SSW 02:16:57 10° S daylight
06 Aug - 15:39:09 10° SSW 15:45:43 30° SSE 15:52:02 10° E visible
06 Aug - 17:31:37 10° WSW 17:39:14 72° SSE 17:46:22 10° ENE visible
06 Aug - 19:25:45 10° W 19:33:05 71° N 19:39:53 10° ENE night (unlit)
06 Aug - 21:20:03 10° WNW 21:27:03 73° N 21:33:33 10° E visible
06 Aug - 23:14:02 10° W 23:20:35 61° SSW 23:26:47 10° ESE visible
07 Aug - 01:09:03 10° WSW 01:13:33 20° SSW 01:17:59 10° SSE daylight
07 Aug - 14:38:59 10° SSW 14:44:33 21° SSE 14:50:00 10° ESE visible
07 Aug - 16:30:26 10° SW 16:37:59 56° SSE 16:45:10 10° E visible
07 Aug - 18:24:11 10° W 18:31:46 79° N 18:38:50 10° ENE night (unlit)
07 Aug - 20:18:35 10° W 20:25:47 68° N 20:32:28 10° E visible
07 Aug - 22:12:40 10° WNW 22:19:33 80° SSW 22:25:59 10° ESE visible
08 Aug - 00:07:06 10° W 00:12:42 30° SSW 00:18:06 10° SSE visible
08 Aug - 13:39:41 10° S 13:43:23 14° SSE 13:47:04 10° ESE daylight
08 Aug - 15:29:29 10° SW 15:36:46 43° SSE 15:43:48 10° E visible
08 Aug - 17:22:41 10° WSW 17:30:27 89° SSE 17:37:44 10° ENE visible
08 Aug - 19:17:02 10° W 19:24:28 68° N 19:31:22 10° E night (unlit)
08 Aug - 21:11:17 10° WNW 21:18:25 85° N 21:25:02 10° ESE visible
08 Aug - 23:05:27 10° W 23:11:48 44° SSW 23:17:47 10° SE visible
